W9WKM Weather Reports


Display with metric or nautical units.
time (UTC)temp
F
wind
direction
speed
MPH
gust
MPH
rain 1hr
in
rain 24hr
in
rain mn
in
humidity
%
barometer
mb
20190720091515 79 131 0.0 0.0 0.00 0.00 0.00 90 1008.9
20190720090156 80 131 0.0 1.0 0.00 0.00 0.00 90 1008.7
20190720084633 80 138 0.0 1.0 0.00 0.00 0.00 90 1008.6
20190720083223 80 217 0.0 1.0 0.00 0.00 0.00 89 1008.8
20190720081637 80 169 0.0 0.0 0.00 0.00 0.00 89 1008.6
20190720080129 81 169 0.0 0.0 0.00 0.00 0.00 88 1008.4
20190720074703 81 169 0.0 2.0 0.00 0.00 0.00 87 1008.2
20190720073231 81 168 0.0 3.0 0.00 0.00 0.00 87 1008.0
20190720071710 82 153 1.0 7.0 0.00 0.00 0.00 86 1008.0
20190720070136 82 202 0.0 5.0 0.00 0.00 0.00 86 1007.9
20190720064555 82 176 0.0 4.0 0.00 0.00 0.00 85 1008.0
20190720063104 82 211 1.0 4.0 0.00 0.00 0.00 85 1008.1
20190720061636 83 180 0.0 4.0 0.00 0.00 0.00 84 1008.0
20190720060136 83 275 0.0 3.0 0.00 0.00 0.00 84 1008.0
20190720054607 83 208 0.0 3.0 0.00 0.00 0.00 84 1008.0
20190720053110 83 161 0.0 4.0 0.00 0.00 0.00 84 1007.8
20190720051638 83 162 1.0 5.0 0.00 0.00 0.00 84 1007.9
20190720050105 84 160 1.0 5.0 0.00 0.00 0.00 84 1007.8
20190720044602 84 139 0.0 3.0 0.00 0.00 0.00 84 1007.8
20190720043049 84 146 0.0 3.0 0.00 0.00 0.00 83 1007.7
20190720041606 85 183 1.0 7.0 0.00 0.00 0.00 82 1007.8
20190720040106 85 169 0.0 3.0 0.00 0.00 0.00 82 1007.6
20190720034551 85 188 0.0 6.0 0.00 0.00 0.00 81 1007.5
20190720033122 86 157 2.0 5.0 0.00 0.00 0.00 79 1007.7
20190720031550 86 154 1.0 8.0 0.00 0.00 0.00 80 1007.1
20190720030114 86 179 0.0 4.0 0.00 0.00 0.00 80 1006.6
20190720024608 86 172 0.0 6.0 0.00 0.00 0.00 80 1007.0
20190720023108 87 156 0.0 4.0 0.00 0.00 0.00 79 1006.8
20190720021555 87 195 0.0 6.0 0.00 0.00 0.00 80 1006.3
20190720020118 87 133 0.0 5.0 0.00 0.00 0.00 80 1006.0
20190720014556 88 210 1.0 6.0 0.00 0.00 0.00 79 1005.6
20190720013044 88 243 1.0 7.0 0.00 0.00 0.00 78 1005.5
20190720011528 89 150 1.0 7.0 0.00 0.00 0.00 77 1005.1
20190720010035 89 151 1.0 4.0 0.00 0.00 0.00 75 1004.9
20190720004529 90 236 1.0 7.0 0.00 0.00 0.00 74 1004.5
20190720003102 91 162 2.0 6.0 0.00 0.00 0.00 73 1004.7
20190720001542 91 154 1.0 12.0 0.00 0.00 0.00 72 1004.7
20190720000028 92 137 2.0 8.0 0.00 0.00 0.00 70 1004.7
20190719234523 94 212 1.0 6.0 0.00 0.00 0.00 68 1004.9
20190719233050 94 147 1.0 7.0 0.00 0.00 0.00 67 1004.9
20190719231527 94 203 0.0 7.0 0.00 0.00 0.00 68 1005.0
20190719230016 93 124 2.0 8.0 0.00 0.00 0.00 68 1005.2
20190719224508 94 184 2.0 10.0 0.00 0.00 0.00 65 1005.5
20190719223003 94 199 1.0 7.0 0.00 0.00 0.00 67 1005.6
20190719221504 93 219 0.0 8.0 0.00 0.00 0.00 68 1005.7
20190719220152 94 184 1.0 6.0 0.00 0.00 0.00 67 1005.8
20190719214706 94 275 1.0 7.0 0.00 0.00 0.00 68 1005.9
20190719213126 95 139 1.0 7.0 0.00 0.00 0.00 65 1005.9
20190719211703 95 110 1.0 9.0 0.00 0.00 0.00 64 1006.0
20190719210158 95 178 1.0 10.0 0.00 0.00 0.00 65 1006.0
20190719204607 95 172 1.0 8.0 0.00 0.00 0.00 65 1006.1
20190719203112 94 210 0.0 7.0 0.00 0.00 0.00 67 1006.4
20190719201552 94 224 1.0 5.0 0.00 0.00 0.00 68 1006.5
20190719200059 93 210 1.0 7.0 0.00 0.00 0.00 68 1006.5
20190719194606 93 244 1.0 6.0 0.00 0.00 0.00 68 1006.6
20190719193038 93 162 0.0 5.0 0.00 0.00 0.00 67 1006.6
20190719191525 93 153 2.0 5.0 0.00 0.00 0.00 67 1006.8
20190719190034 93 172 0.0 4.0 0.00 0.00 0.00 67 1006.7
20190719184556 94 119 1.0 4.0 0.00 0.00 0.00 65 1006.8
20190719183012 94 120 0.0 6.0 0.00 0.00 0.00 66 1007.0
20190719181510 93 197 2.0 9.0 0.00 0.00 0.00 66 1007.0
20190719180002 92 152 0.0 6.0 0.00 0.00 0.00 68 1007.1
20190719174705 92 161 1.0 4.0 0.00 0.01 0.00 68 1007.2
20190719173131 91 228 0.0 4.0 0.00 0.01 0.00 68 1007.3
20190719171641 91 129 0.0 4.0 0.00 0.01 0.00 69 1007.6
20190719170109 90 220 1.0 5.0 0.00 0.01 0.00 71 1007.6
20190719164613 89 224 1.0 6.0 0.00 0.26 0.00 72 1007.6
20190719163128 89 234 1.0 5.0 0.00 0.26 0.00 72 1007.5
20190719161555 88 169 2.0 5.0 0.00 0.26 0.00 74 1007.3
20190719160052 87 240 1.0 5.0 0.00 0.26 0.00 74 1007.3
20190719154615 87 239 1.0 6.0 0.00 0.40 0.00 75 1007.0
20190719153029 86 167 0.0 4.0 0.00 0.40 0.00 77 1006.6
20190719151605 85 206 1.0 7.0 0.00 0.40 0.00 79 1006.3
20190719150125 84 148 4.0 9.0 0.00 0.40 0.00 80 1006.2
20190719144538 84 117 1.0 7.0 0.00 0.96 0.00 82 1006.4
20190719143021 83 158 2.0 7.0 0.00 0.96 0.00 84 1006.1
20190719141543 83 153 1.0 5.0 0.00 0.96 0.00 84 1006.2
20190719140015 82 149 2.0 7.0 0.00 0.96 0.00 84 1006.3
20190719134513 82 155 1.0 5.0 0.00 1.49 0.00 85 1006.3
20190719133013 81 128 1.0 6.0 0.00 1.49 0.00 86 1006.4
20190719131518 81 166 1.0 4.0 0.00 1.49 0.00 87 1006.8
20190719130015 81 167 1.0 4.0 0.00 1.49 0.00 87 1007.3
20190719124515 81 221 0.0 4.0 0.00 1.49 0.00 88 1007.4
20190719123027 81 179 0.0 6.0 0.00 1.49 0.00 88 1007.7
20190719121502 80 186 0.0 2.0 0.00 1.49 0.00 89 1007.8
20190719120001 80 170 0.0 2.0 0.00 1.49 0.00 90 1007.8
20190719114733 80 146 0.0 5.0 0.00 1.49 0.00 90 1007.6
20190719113230 80 158 0.0 3.0 0.00 1.49 0.00 90 1007.2
20190719111716 80 176 1.0 3.0 0.00 1.49 0.00 91 1007.1
20190719110154 79 182 1.0 5.0 0.00 1.49 0.00 91 1006.9
20190719104710 79 155 0.0 3.0 0.00 1.49 0.00 91 1006.7
20190719103203 79 217 0.0 3.0 0.00 1.49 0.00 91 1006.5
20190719102032 80 150 0.0 3.0 0.00 1.49 0.00 91 1006.4
20190719100142 80 141 0.0 4.0 0.00 1.49 0.00 91 1006.4
20190719094652 80 165 1.0 6.0 0.00 1.49 0.00 91 1006.2
20190719093115 80 232 0.0 3.0 0.00 1.49 0.00 91 1006.3